Location: Alfarr�s
(41.8301°N, 0.5702°E)
Time: 16:31:06
(UTC+00:00)

Daily predictions for brighter satellites

Satellite Brightness Start Highest point End
(mag) Time Altitude Azimuth Time Altitude Azimuth Time Altitude Azimuth
ADEOS Rocket 4.0 17:55:25 10° NNE 18:02:35 39° E 18:09:34 10° SSE
STARLINK-1068 3.8 18:00:36 10° SW 18:04:38 55° SE 18:08:41 10° ENE
Cosmos 1777 Rocket 4.3 18:00:11 10° N 18:05:18 48° ENE 18:10:23 10° SE
Cosmos 2061 Rocket 4.2 18:02:10 10° S 18:08:36 83° W 18:15:01 10° N
Aureole 2 Rocket 1.9 18:06:16 10° S 18:08:48 48° ESE 18:11:23 10° NNE
STARLINK-1007 4.2 18:06:47 10° W 18:09:47 36° NNW 18:12:48 10° NE
NOSS 2-3 (E) 3.9 18:10:00 10° SSW 18:14:02 48° ESE 18:18:39 10° NE
STARLINK-1060 3.7 18:10:28 10° SW 18:14:34 67° SE 18:18:41 10° ENE
Cosmos 2369 Rocket 2.2 18:11:23 10° SSW 18:16:58 67° ESE 18:22:37 10° NNE
YAOGAN 1 2.6 18:12:46 10° SSE 18:16:59 56° ENE 18:21:15 10° N
Cosmos 1812 2.7 18:14:17 10° N 18:18:07 59° E 18:21:55 10° SSE
STARLINK-1030 3.6 18:15:27 10° SW 18:19:34 74° SE 18:23:42 10° NE
SL-4 R/B 3.8 18:15:18 10° WNW 18:19:41 37° SW 18:23:52 10° SSE
Meteor 1-10 Rocket 4.4 18:14:04 10° NNW 18:19:41 80° W 18:25:13 10° S
Cosmos 1633 Rocket 3.0 18:17:16 10° S 18:21:34 76° E 18:25:56 10° N
CZ-2D R/B 3.4 18:19:32 10° SSE 18:23:17 51° ENE 18:27:05 10° N
Cosmos 2285 Rocket 4.4 18:17:18 10° N 18:23:20 43° ENE 18:29:22 10° SE
SL-27 R/B 2.2 18:20:58 10° NNW 18:24:18 74° ENE 18:27:35 10° SSE
STARLINK-1020 3.6 18:20:23 10° SW 18:24:30 80° SE 18:28:39 10° NE
Cosmos 1862 4.0 18:20:53 10° SSW 18:24:49 58° W 18:28:45 10° N
STARLINK-1047 3.6 18:21:10 10° SW 18:25:20 84° SE 18:29:32 10° NE
BREEZE-M DEB (TANK) 4.0 18:15:33 10° WNW 18:25:57 67° SW 18:29:11 10° SE
Tsikada Rocket 4.1 18:19:39 10° N 18:26:05 85° E 18:32:31 10° S
Hubble Space Telescope 3.2 18:26:18 10° S 18:27:26 11° S 18:28:34 10° SSE
SKYMED 2 4.2 18:23:35 10° N 18:27:52 60° WNW 18:32:08 10° SSW
Cosmos 1666 Rocket 3.9 18:23:49 10° SSW 18:28:17 74° W 18:32:47 10° N
NOSS 2-3 (D) 3.6 18:24:48 10° SSW 18:28:58 62° ESE 18:33:44 10° NE
Cosmos 1933 Rocket 4.2 18:24:59 10° SSE 18:28:59 34° E 18:32:57 10° NNE
STARLINK-1052 3.6 18:25:23 10° SW 18:29:30 87° SE 18:33:34 11° NE
USA 229 DEB 4.1 18:24:23 10° SW 18:30:51 63° NW 18:37:41 10° NNE
USA 229 4.1 18:24:30 10° SW 18:30:58 64° NW 18:37:46 10° NNE
STARLINK-29 4.1 18:28:37 10° NW 18:31:43 32° NNE 18:33:50 17° E
Cosmos 44 3.2 18:31:52 10° NNW 18:36:11 52° NE 18:40:39 10° SE
Cosmos 1346 Rocket 3.0 18:33:55 10° SSE 18:37:44 46° E 18:41:33 10° NNE
NOSS 3-1 (A) 3.4 18:32:34 10° SW 18:38:00 82° NW 18:44:18 10° NE
STARLINK-1033 3.7 18:35:20 10° SW 18:39:27 79° NW 18:43:07 13° NE
STARLINK-1035 3.9 18:35:56 10° WSW 18:40:10 71° NW 18:44:01 12° NE
Ariane Rocket 3.5 18:35:56 10° SE 18:40:35 37° ENE 18:45:17 10° N
Cosmos 2263 4.2 18:36:23 10° SSW 18:42:09 77° ESE 18:47:56 10° NNE
ARGOS 4.2 18:39:13 12° ESE 18:43:11 25° ENE 18:47:32 10° N
FALCON 9 DEB 3.6 18:39:51 10° NW 18:43:11 44° NNE 18:45:00 23° E
STARLINK-52 3.9 18:40:46 10° NW 18:43:55 35° NNE 18:45:24 23° ENE
CSL-04 Rocket 3.7 18:38:58 10° SSE 18:44:31 88° WSW 18:50:02 10° NNW
USA 116 4.2 18:40:38 10° N 18:44:40 74° WNW 18:49:14 10° SSW
STARLINK-1024 3.9 18:45:18 10° WSW 18:49:25 67° NW 18:52:41 16° NE
STARLINK-60 3.0 18:46:32 10° NW 18:49:51 85° SSW 18:51:55 21° SE
Cosmos 2233 Rocket 4.1 18:43:53 10° S 18:50:01 79° W 18:56:15 10° N
STARLINK-1027 4.2 18:46:39 10° WSW 18:50:50 56° NNW 18:54:17 15° NE
H-2A R/B 2.7 18:49:08 10° SE 18:53:58 35° ENE 18:58:52 10° N
STARLINK-1039 4.4 18:52:28 10° SSW 18:56:09 32° SE 18:57:19 27° E
Lacrosse 5 3.1 18:54:23 10° S 18:58:11 21° ESE 18:58:29 21° ESE
STARLINK-1032 4.1 18:55:20 10° WSW 18:59:24 56° NNW 19:02:16 19° NE
Meteor 1-20 Rocket 4.2 18:55:45 10° S 19:01:05 58° E 19:06:30 10° NNE
STARLINK-1045 4.3 18:57:21 10° SSW 19:01:07 35° SE 19:02:07 31° ESE
NOSS 2-3 (C) 4.1 18:58:56 10° SW 19:03:10 62° NW 19:08:08 10° NNE
Cosmos 724 4.2 18:57:44 10° NNW 19:03:34 83° ENE 19:09:24 10° SSE
STARLINK-1011 4.2 19:00:20 10° WSW 19:04:23 52° NNW 19:07:02 20° NE
STARLINK-1050 4.1 19:02:16 10° SSW 19:06:08 40° SE 19:07:01 35° ESE
Lacrosse 5 rocket 3.9 19:05:34 10° NNW 19:07:19 12° N 19:09:03 10° NNE
Cosmos 1470 Rocket 4.1 19:04:18 10° SSW 19:08:34 60° W 19:12:56 10° N
Okean 1 4.0 19:05:01 10° N 19:08:21 34° ENE 19:08:21 34° ENE
STARLINK-1036 4.4 19:05:22 10° WSW 19:09:23 48° NNW 19:11:49 21° NE
Cosmos 1072 Rocket 4.5 19:03:11 10° S 19:09:27 63° E 19:15:42 10° NNE
STARLINK-1055 4.0 19:07:09 10° SSW 19:11:05 44° SE 19:11:47 40° ESE
Cosmos 2242 Rocket 3.6 19:08:31 10° N 19:13:05 89° W 19:17:39 10° S
Meteor 1-14 Rocket 4.3 19:08:13 10° SSE 19:13:28 47° E 19:18:46 10° NNE
STARLINK-1044 4.5 19:10:23 10° WSW 19:14:22 45° NNW 19:16:36 23° NNE
Cosmos 1943 Rocket 3.8 19:09:57 10° WSW 19:14:59 34° WNW 19:20:00 10° N
STARLINK-1022 3.8 19:12:04 10° SSW 19:16:03 49° SE 19:16:35 45° ESE
Gbstr 26 Del rocket 2.9 19:12:56 10° SW 19:16:57 68° SE 19:18:23 41° ENE
CZ-4 R/B 4.1 19:15:28 10° SSW 19:18:46 22° W 19:22:05 10° NW
Cosmos 2227 Rocket 4.2 19:18:54 10° NNE 19:20:07 11° NE 19:20:07 11° NE
STARLINK-1042 3.7 19:16:59 10° SW 19:21:00 54° SE 19:21:21 52° ESE
Cosmos 1340 4.3 19:18:10 10° SW 19:21:39 36° WNW 19:25:10 10° N
Cosmos 1513 Rocket 4.3 19:15:47 10° S 19:21:48 72° E 19:27:56 10° NNE
CZ-2C R/B 3.4 19:18:59 18° SE 19:23:17 55° ENE 19:28:51 10° N
GPS 2-04 Rocket1 3.9 19:21:36 10° SW 19:25:19 31° S 19:25:33 30° SSE
STARLINK-1056 3.6 19:21:54 10° SW 19:25:58 59° SE 19:26:08 59° SE
Cosmos 405 3.6 19:26:56 10° N 19:29:30 44° N 19:29:30 44° N
STARLINK-1054 3.5 19:26:50 10° SW 19:30:54 65° SE 19:30:54 65° SE
Cosmos 1891 Rocket 4.4 19:26:04 10° S 19:32:14 88° E 19:38:34 10° N
USA 267 3.9 19:33:08 33° SE 19:33:08 33° SE 19:38:53 10° S
Cosmos 1703 Rocket 3.5 19:29:51 10° N 19:34:20 84° W 19:37:46 17° S
Okean 1-7 2.8 19:30:43 10° N 19:35:02 84° E 19:36:19 45° SSE
STARLINK-1062 3.5 19:31:47 10° SW 19:35:41 70° SSE 19:35:41 70° SSE
COSMOS 2487 3.0 19:32:40 10° NNW 19:35:18 50° NNW 19:35:18 50° NNW
SPOT 3 Rocket 3.7 19:36:24 50° ENE 19:36:27 50° ENE 19:41:29 10° N
Meteor 1-19 Rocket 4.1 19:32:50 10° N 19:38:38 66° ENE 19:40:38 40° SE
Cosmos 468 Rocket 3.9 19:33:37 10° SSW 19:38:52 81° ESE 19:44:13 10° NNE
Cosmos 1869 Rocket 3.4 19:36:27 10° S 19:40:51 79° E 19:45:14 10° N
STARLINK-1053 3.6 19:36:44 10° SW 19:40:28 69° SSW 19:40:28 69° SSW
Cosmos 44 Rocket 4.0 19:36:48 10° NNW 19:40:28 37° NNE 19:40:28 37° NNE
Meteor 2-4 Rocket 4.1 19:37:00 10° N 19:42:11 45° ENE 19:42:11 45° ENE
BREEZE-M DEB (TANK) 3.8 19:42:06 10° WNW 19:45:27 83° SSW 19:47:33 44° SE
STARLINK-1061 3.8 19:41:42 10° SW 19:45:14 64° SW 19:45:14 64° SW
SJ 16-02 1.8 19:41:43 10° NNW 19:45:09 50° N 19:45:09 50° N
SJ-6B 4.2 19:52:31 30° NNW 19:52:31 30° NNW 19:54:30 10° NNW
STARLINK-1067 4.0 19:46:40 10° SW 19:50:01 58° SW 19:50:01 58° SW
Cosmos 1898 Rocket 3.3 19:46:35 10° NNW 19:51:47 83° ENE 19:52:08 77° SE
STARLINK-1058 4.3 19:51:37 10° SW 19:54:47 51° WSW 19:54:47 51° WSW
Cosmos 1464 Rocket 4.5 19:51:23 10° SSW 19:57:38 62° W 20:03:59 10° N
Nadezhda 4 Rocket 3.9 19:54:47 10° N 20:01:07 89° E 20:03:48 38° S
Cosmos 1763 Rocket 3.6 20:00:51 10° SSW 20:06:02 72° WNW 20:07:24 49° N
USA 234 4.2 20:06:31 30° NNE 20:07:17 31° NNE 20:12:52 10° NW
Centaur D AC-28 4.1 20:12:33 10° WSW 20:16:00 16° SSW 20:16:07 16° SSW
Cosmos 2034 Rocket 4.4 20:11:30 10° SSW 20:17:34 59° W 20:23:39 10° N
Timation 2 Rocket 4.2 20:13:49 10° NNW 20:20:44 79° WSW 20:21:36 68° S
ARGOS 4.1 20:20:43 28° SSW 20:23:09 45° W 20:28:22 10° NNW
BREEZE-M DEB (TANK) 4.2 20:09:01 10° W 20:27:03 50° N 20:27:48 47° NNE
H-2A R/B 3.8 20:29:09 12° SSW 20:33:21 31° W 20:38:09 10° NNW
Lacrosse 5 3.7 20:35:40 10° SW 20:37:46 25° WSW 20:37:46 25° WSW
CENTAUR R/B 4.1 20:35:22 10° NNW 20:41:17 33° NNE 20:41:17 33° NNE
Cosmos 1092 Rocket 4.5 20:38:22 10° NNW 20:43:32 56° NW 20:43:32 56° NW
Cosmos 2297 Rocket 4.1 20:42:08 10° NNW 20:44:06 22° N 20:44:06 22° N
Lacrosse 5 rocket 4.4 20:44:26 10° NNW 20:44:58 12° NNW 20:44:58 12° NNW
H-2A R/B 4.3 20:38:43 10° WSW 20:50:26 26° SSW 20:50:26 26° SSW
ATLAS 3B R/B 4.4 20:47:44 10° NNW 20:50:49 20° N 20:50:49 20° N
Cosmos 2227 Rocket 4.3 21:00:29 10° NNW 21:01:58 19° NNW 21:01:58 19° NNW
